{"data":{"norad_id":48364,"epoch":"2026-09-19T22:14:37.949568Z","epoch_age_seconds":83258,"freshness":"FRESH","line1":"1 48364U 21038M   26262.92682812 -.00000696  00000+0 -10663-4 0  9997","line2":"2 48364  53.1595 163.8541 0001316 110.3780 249.7363 15.31711215296990","mean_motion":15.31711215,"eccentricity":0.0001316,"inclination_deg":53.1595,"raan_deg":163.8541,"arg_perigee_deg":110.378,"mean_anomaly_deg":249.7363,"bstar":-1.0663e-5,"rev_number":29699,"period_min":94.012499608159,"perigee_km":469.80525628518,"apogee_km":471.60787191125,"semimajor_km":6848.8435640982,"source":"CELESTRAK","updated_at":"2026-09-20T09:00:38.940931Z"}}